Location: Newark
(65.1833°N, 14.6000°W)
Time: 20:49:18
(UTC+00:00)

Envisat - Visible Passes

Search period start: 18 September 2020 00:00
Search period end: 28 September 2020 00:00
Orbit: 764 x 766 km, 98.1° (Epoch: 18 September)

Date Brightness Start Highest point End Pass type
(mag) Time Alt. Az. Time Alt. Az. Time Alt. Az.
19 Sep 6.2 05:29:18 10° NE 05:32:26 16° ENE 05:35:32 10° ESE visible
19 Sep 6.6 20:18:33 10° W 20:20:33 12° WNW 20:22:33 10° NW visible
22 Sep 6.4 05:18:13 10° NE 05:20:52 14° ENE 05:23:30 10° ESE visible
22 Sep 6.4 20:06:20 10° WSW 20:08:58 14° WNW 20:11:37 10° NW visible
24 Sep 6.1 05:43:07 10° NE 05:46:46 19° E 05:50:23 10° SE visible
25 Sep 6.5 05:07:17 10° NE 05:09:16 12° ENE 05:11:16 10° E visible
25 Sep 6.3 19:54:17 10° WSW 19:57:24 16° WNW 20:00:31 10° NW visible
27 Sep 6.2 05:31:56 10° NE 05:35:13 17° E 05:38:29 10° ESE visible
27 Sep 6.7 20:21:39 10° W 20:23:21 11° WNW 20:25:02 10° NW visible
